STARLINK-3820, 52364

Orbit data source: Space-Track

STARLINK-3820, 52364 is a payload satellite owned by SpaceX/Seattle (US) in LEO that was launched on Fri, 29 Apr 2022 UTC via an FALCON 9 launch vehicle from the Air Force Eastern Test Range (AFETR). Payload-class satellites include a variety of spacecraft equipped with specific instruments for various scientific and technological missions. These include communications satellites like Starlink; space stations such as the ISS; scientific satellites like the Hubble; Earth observation satellites from companies like Planet Labs, Umbra, and HawkEye 360; GPS; miniature CubeSats for education and research; and military/defense satellites.

Loading next visibility...
Identifier
52364, 2022-045AK
Orbit
LEO
Country
Flag of USUS
Related business
Manufacturer
SpaceX/Seattle
Mission
Operational Commercial Communications
Bus & Motor
STARLINK, Unknown motor
Mass
297 kg wet, ~275 kg dry
Launch date (UTC)
2022-04-29 (4 years ago)
Launch vehicle
FALCON 9
Launch site
Air Force Eastern Test Range (AFETR)
Object type
Payload
Rocket body
Debris
Shape & HBR
Box + 1 Pan, 10.1 m
Radar Cross Section
11.087 m², Large (>1 m²)

Expand to show TLE details & history
Last TLE update: 20 hours ago

TLE from 20 hours ago
0 STARLINK-3820
1 52364U 22045AK  25348.85103624 -.00003830  00000-0 -22277-3 0  9993
2 52364  53.2166 209.8845 0001363  90.4949 269.6199 15.08826289203117
Epoch: 2025-12-14T20:25Z
TLE epoch observation values (Epoch: 2025-12-14T20:25:29.531Z)
Latitude
-0.00003°
Longitude
179.7534°
Altitude
540.689 km
Speed
7.593 km/s
True Right ascension
13h 59m 32s
True Declination
0° 00' 00"
Sunlit
Object was in daylight at epoch
Visualization orbit readout
Latitude
Unknown
Longitude
Unknown
Altitude
Unknown
Speed
Unknown
Apparent Right ascension
Unknown
Apparent Declination
Unknown
Sunlit
N/A
Visualization observer readout
Local Sidereal Time
15:11:33
Azimuth
Unknown
Elevation
Unknown
Doppler factor
Unknown
Orbital elements
Apogee altitude
540.973 km
Perigee altitude
539.087 km
Semi-major axis
6,918.167 km
Eccentricity
0.00014
Inclination
53.2166°
RAAN
209.8845°
Arg. of periapsis
90.4949°
True anomaly
269.60428°
Mean anomaly
269.6199°
Eccentric anomaly
269.61209°
Mean motion
3.77187 °/min
Orbital period
95.44 mins
BSTAR
-0.00022277
Loading maneuver chart data...
Computing Atmospheric mass density...
Loading historical data...
Loading historical data...
Loading historical data...
Loading historical data...
Loading historical data...
Loading historical data...
Loading historical data...

Documentation

Showing up to 5 results
|